owner,sensor,date,latitude,longitude,air_temperature,qcFlag 
TCOON,ioos:station:TCOON:006:1,2012-10-01T00:00:00Z,27.8217,-97.2040,26.0,11111222 
TCOON,ioos:station:TCOON:006:1,2012-10-01T01:00:00Z,27.8217,-97.2040,24.8,11111222 
TCOON,ioos:station:TCOON:006:1,2012-10-01T02:00:00Z,27.8217,-97.2040,23.8,11111222 
TCOON,ioos:station:TCOON:006:1,2012-10-01T03:00:00Z,27.8217,-97.2040,23.3,11111222 
TCOON,ioos:station:TCOON:006:1,2012-10-01T04:00:00Z,27.8217,-97.2040,22.2,11111222 
TCOON,ioos:station:TCOON:006:1,2012-10-01T05:00:00Z,27.8217,-97.2040,21.4,11111222 
TCOON,ioos:station:TCOON:006:1,2012-10-01T06:00:00Z,27.8217,-97.2040,20.7,11111222 
TCOON,ioos:station:TCOON:006:1,2012-10-01T07:00:00Z,27.8217,-97.2040,20.0,11111222 
TCOON,ioos:station:TCOON:006:1,2012-10-01T08:00:00Z,27.8217,-97.2040,19.1,11111222 
TCOON,ioos:station:TCOON:006:1,2012-10-01T09:00:00Z,27.8217,-97.2040,19.1,11111222 
TCOON,ioos:station:TCOON:006:1,2012-10-01T10:00:00Z,27.8217,-97.2040,18.7,11111222 
TCOON,ioos:station:TCOON:006:1,2012-10-01T11:00:00Z,27.8217,-97.2040,18.5,11111222 
TCOON,ioos:station:TCOON:006:1,2012-10-01T12:00:00Z,27.8217,-97.2040,18.4,11111222 
TCOON,ioos:station:TCOON:006:1,2012-10-01T13:00:00Z,27.8217,-97.2040,20.4,11111222 
TCOON,ioos:station:TCOON:006:1,2012-10-01T14:00:00Z,27.8217,-97.2040,22.6,11111222 
TCOON,ioos:station:TCOON:006:1,2012-10-01T15:00:00Z,27.8217,-97.2040,21.8,11111222 
TCOON,ioos:station:TCOON:006:1,2012-10-01T16:00:00Z,27.8217,-97.2040,22.1,11111222 
TCOON,ioos:station:TCOON:006:1,2012-10-01T17:00:00Z,27.8217,-97.2040,22.9,11111222 
TCOON,ioos:station:TCOON:006:1,2012-10-01T18:00:00Z,27.8217,-97.2040,24.0,11111222 
TCOON,ioos:station:TCOON:006:1,2012-10-01T19:00:00Z,27.8217,-97.2040,25.5,11111222 
TCOON,ioos:station:TCOON:006:1,2012-10-01T20:00:00Z,27.8217,-97.2040,26.1,11111222 
TCOON,ioos:station:TCOON:006:1,2012-10-01T21:00:00Z,27.8217,-97.2040,26.8,11111222 
TCOON,ioos:station:TCOON:006:1,2012-10-01T22:00:00Z,27.8217,-97.2040,22.5,11111222 
TCOON,ioos:station:TCOON:006:1,2012-10-01T23:00:00Z,27.8217,-97.2040,21.9,11111222 
TCOON,ioos:station:TCOON:006:1,2012-10-02T00:00:00Z,27.8217,-97.2040,22.0,11111222 
TCOON,ioos:station:TCOON:006:1,2012-10-02T01:00:00Z,27.8217,-97.2040,21.7,11111222 
TCOON,ioos:station:TCOON:006:1,2012-10-02T02:00:00Z,27.8217,-97.2040,20.6,11111222 
TCOON,ioos:station:TCOON:006:1,2012-10-02T03:00:00Z,27.8217,-97.2040,21.6,11111222 
TCOON,ioos:station:TCOON:006:1,2012-10-02T04:00:00Z,27.8217,-97.2040,21.8,11111222 
TCOON,ioos:station:TCOON:006:1,2012-10-02T05:00:00Z,27.8217,-97.2040,21.9,11111222 
TCOON,ioos:station:TCOON:006:1,2012-10-02T06:00:00Z,27.8217,-97.2040,21.9,11111222 
TCOON,ioos:station:TCOON:006:1,2012-10-02T07:00:00Z,27.8217,-97.2040,21.6,11111222 
TCOON,ioos:station:TCOON:006:1,2012-10-02T08:00:00Z,27.8217,-97.2040,22.1,11111222 
TCOON,ioos:station:TCOON:006:1,2012-10-02T09:00:00Z,27.8217,-97.2040,21.9,11111222 
TCOON,ioos:station:TCOON:006:1,2012-10-02T10:00:00Z,27.8217,-97.2040,21.5,11111222 
TCOON,ioos:station:TCOON:006:1,2012-10-02T11:00:00Z,27.8217,-97.2040,20.5,11111222 
TCOON,ioos:station:TCOON:006:1,2012-10-02T12:00:00Z,27.8217,-97.2040,21.0,11111222 
TCOON,ioos:station:TCOON:006:1,2012-10-02T13:00:00Z,27.8217,-97.2040,22.0,11111222 
TCOON,ioos:station:TCOON:006:1,2012-10-02T14:00:00Z,27.8217,-97.2040,23.5,11111222 
TCOON,ioos:station:TCOON:006:1,2012-10-02T15:00:00Z,27.8217,-97.2040,24.8,11111222 
TCOON,ioos:station:TCOON:006:1,2012-10-02T16:00:00Z,27.8217,-97.2040,26.1,11111222 
TCOON,ioos:station:TCOON:006:1,2012-10-02T17:00:00Z,27.8217,-97.2040,26.9,11111222 
TCOON,ioos:station:TCOON:006:1,2012-10-02T18:00:00Z,27.8217,-97.2040,28.1,11111222 
TCOON,ioos:station:TCOON:006:1,2012-10-02T19:00:00Z,27.8217,-97.2040,29.4,11111222 
TCOON,ioos:station:TCOON:006:1,2012-10-02T20:00:00Z,27.8217,-97.2040,29.5,11111222 
TCOON,ioos:station:TCOON:006:1,2012-10-02T21:00:00Z,27.8217,-97.2040,29.0,11111222 
TCOON,ioos:station:TCOON:006:1,2012-10-02T22:00:00Z,27.8217,-97.2040,29.1,11111222 
TCOON,ioos:station:TCOON:006:1,2012-10-02T23:00:00Z,27.8217,-97.2040,27.6,11111222 
TCOON,ioos:station:TCOON:006:1,2012-10-03T00:00:00Z,27.8217,-97.2040,25.3,11111222 
TCOON,ioos:station:TCOON:006:1,2012-10-03T01:00:00Z,27.8217,-97.2040,24.6,11111222 
TCOON,ioos:station:TCOON:006:1,2012-10-03T02:00:00Z,27.8217,-97.2040,24.1,11111222 
TCOON,ioos:station:TCOON:006:1,2012-10-03T03:00:00Z,27.8217,-97.2040,23.5,11111222 
TCOON,ioos:station:TCOON:006:1,2012-10-03T04:00:00Z,27.8217,-97.2040,23.1,11111222 
TCOON,ioos:station:TCOON:006:1,2012-10-03T05:00:00Z,27.8217,-97.2040,23.3,11111222 
TCOON,ioos:station:TCOON:006:1,2012-10-03T06:00:00Z,27.8217,-97.2040,22.7,11111222 
TCOON,ioos:station:TCOON:006:1,2012-10-03T07:00:00Z,27.8217,-97.2040,22.7,11111222 
TCOON,ioos:station:TCOON:006:1,2012-10-03T08:00:00Z,27.8217,-97.2040,22.7,11111222 
TCOON,ioos:station:TCOON:006:1,2012-10-03T09:00:00Z,27.8217,-97.2040,22.2,11111222 
TCOON,ioos:station:TCOON:006:1,2012-10-03T10:00:00Z,27.8217,-97.2040,22.4,11111222 
TCOON,ioos:station:TCOON:006:1,2012-10-03T11:00:00Z,27.8217,-97.2040,21.8,11111222 
TCOON,ioos:station:TCOON:006:1,2012-10-03T12:00:00Z,27.8217,-97.2040,22.1,11111222 
TCOON,ioos:station:TCOON:006:1,2012-10-03T13:00:00Z,27.8217,-97.2040,23.4,11111222 
TCOON,ioos:station:TCOON:006:1,2012-10-03T14:00:00Z,27.8217,-97.2040,25.1,11111222 
TCOON,ioos:station:TCOON:006:1,2012-10-03T15:00:00Z,27.8217,-97.2040,26.0,11111222 
TCOON,ioos:station:TCOON:006:1,2012-10-03T16:00:00Z,27.8217,-97.2040,26.1,11111222 
TCOON,ioos:station:TCOON:006:1,2012-10-03T17:00:00Z,27.8217,-97.2040,27.0,11111222 
TCOON,ioos:station:TCOON:006:1,2012-10-03T18:00:00Z,27.8217,-97.2040,27.1,11111222 
TCOON,ioos:station:TCOON:006:1,2012-10-03T19:00:00Z,27.8217,-97.2040,28.2,11111222 
TCOON,ioos:station:TCOON:006:1,2012-10-03T20:00:00Z,27.8217,-97.2040,27.7,11111222 
TCOON,ioos:station:TCOON:006:1,2012-10-03T21:00:00Z,27.8217,-97.2040,27.6,11111222 
TCOON,ioos:station:TCOON:006:1,2012-10-03T22:00:00Z,27.8217,-97.2040,27.5,11111222 
TCOON,ioos:station:TCOON:006:1,2012-10-03T23:00:00Z,27.8217,-97.2040,27.7,11111222 
TCOON,ioos:station:TCOON:006:1,2012-10-04T00:00:00Z,27.8217,-97.2040,27.4,11111222 
TCOON,ioos:station:TCOON:006:1,2012-10-04T01:00:00Z,27.8217,-97.2040,27.2,11111222 
TCOON,ioos:station:TCOON:006:1,2012-10-04T02:00:00Z,27.8217,-97.2040,27.2,11111222 
TCOON,ioos:station:TCOON:006:1,2012-10-04T03:00:00Z,27.8217,-97.2040,27.2,11111222 
TCOON,ioos:station:TCOON:006:1,2012-10-04T04:00:00Z,27.8217,-97.2040,27.2,11111222 
TCOON,ioos:station:TCOON:006:1,2012-10-04T05:00:00Z,27.8217,-97.2040,27.2,11111222 
TCOON,ioos:station:TCOON:006:1,2012-10-04T06:00:00Z,27.8217,-97.2040,27.3,11111222 
TCOON,ioos:station:TCOON:006:1,2012-10-04T07:00:00Z,27.8217,-97.2040,27.2,11111222 
TCOON,ioos:station:TCOON:006:1,2012-10-04T08:00:00Z,27.8217,-97.2040,27.2,11111222 
TCOON,ioos:station:TCOON:006:1,2012-10-04T09:00:00Z,27.8217,-97.2040,27.0,11111222 
TCOON,ioos:station:TCOON:006:1,2012-10-04T10:00:00Z,27.8217,-97.2040,27.1,11111222 
TCOON,ioos:station:TCOON:006:1,2012-10-04T11:00:00Z,27.8217,-97.2040,27.1,11111222 
TCOON,ioos:station:TCOON:006:1,2012-10-04T12:00:00Z,27.8217,-97.2040,27.1,11111222 
TCOON,ioos:station:TCOON:006:1,2012-10-04T13:00:00Z,27.8217,-97.2040,27.4,11111222 
TCOON,ioos:station:TCOON:006:1,2012-10-04T14:00:00Z,27.8217,-97.2040,27.8,11111222 
TCOON,ioos:station:TCOON:006:1,2012-10-04T15:00:00Z,27.8217,-97.2040,28.3,11111222 
TCOON,ioos:station:TCOON:006:1,2012-10-04T16:00:00Z,27.8217,-97.2040,28.1,11111222 
TCOON,ioos:station:TCOON:006:1,2012-10-04T17:00:00Z,27.8217,-97.2040,28.4,11111222 
TCOON,ioos:station:TCOON:006:1,2012-10-04T18:00:00Z,27.8217,-97.2040,28.4,11111222 
TCOON,ioos:station:TCOON:006:1,2012-10-04T19:00:00Z,27.8217,-97.2040,28.2,11111222 
TCOON,ioos:station:TCOON:006:1,2012-10-04T20:00:00Z,27.8217,-97.2040,28.2,11111222 
TCOON,ioos:station:TCOON:006:1,2012-10-04T21:00:00Z,27.8217,-97.2040,28.4,11111222 
TCOON,ioos:station:TCOON:006:1,2012-10-04T22:00:00Z,27.8217,-97.2040,28.2,11111222 
TCOON,ioos:station:TCOON:006:1,2012-10-04T23:00:00Z,27.8217,-97.2040,27.7,11111222 
TCOON,ioos:station:TCOON:006:1,2012-10-05T00:00:00Z,27.8217,-97.2040,27.5,11111222 
TCOON,ioos:station:TCOON:006:1,2012-10-05T01:00:00Z,27.8217,-97.2040,27.4,11111222 
TCOON,ioos:station:TCOON:006:1,2012-10-05T02:00:00Z,27.8217,-97.2040,27.2,11111222 
TCOON,ioos:station:TCOON:006:1,2012-10-05T03:00:00Z,27.8217,-97.2040,27.1,11111222 
TCOON,ioos:station:TCOON:006:1,2012-10-05T04:00:00Z,27.8217,-97.2040,26.9,11111222 
TCOON,ioos:station:TCOON:006:1,2012-10-05T05:00:00Z,27.8217,-97.2040,26.8,11111222 
TCOON,ioos:station:TCOON:006:1,2012-10-05T06:00:00Z,27.8217,-97.2040,26.7,11111222 
TCOON,ioos:station:TCOON:006:1,2012-10-05T07:00:00Z,27.8217,-97.2040,26.6,11111222 
TCOON,ioos:station:TCOON:006:1,2012-10-05T08:00:00Z,27.8217,-97.2040,26.6,11111222 
TCOON,ioos:station:TCOON:006:1,2012-10-05T09:00:00Z,27.8217,-97.2040,26.5,11111222 
TCOON,ioos:station:TCOON:006:1,2012-10-05T10:00:00Z,27.8217,-97.2040,26.5,11111222 
TCOON,ioos:station:TCOON:006:1,2012-10-05T11:00:00Z,27.8217,-97.2040,26.5,11111222 
TCOON,ioos:station:TCOON:006:1,2012-10-05T12:00:00Z,27.8217,-97.2040,26.7,11111222 
TCOON,ioos:station:TCOON:006:1,2012-10-05T13:00:00Z,27.8217,-97.2040,27.5,11111222 
TCOON,ioos:station:TCOON:006:1,2012-10-05T14:00:00Z,27.8217,-97.2040,27.5,11111222 
TCOON,ioos:station:TCOON:006:1,2012-10-05T15:00:00Z,27.8217,-97.2040,27.8,11111222 
TCOON,ioos:station:TCOON:006:1,2012-10-05T16:00:00Z,27.8217,-97.2040,27.7,11111222 
TCOON,ioos:station:TCOON:006:1,2012-10-05T17:00:00Z,27.8217,-97.2040,28.0,11111222 
TCOON,ioos:station:TCOON:006:1,2012-10-05T18:00:00Z,27.8217,-97.2040,28.0,11111222 
TCOON,ioos:station:TCOON:006:1,2012-10-05T19:00:00Z,27.8217,-97.2040,28.0,11111222 
TCOON,ioos:station:TCOON:006:1,2012-10-05T20:00:00Z,27.8217,-97.2040,27.8,11111222 
TCOON,ioos:station:TCOON:006:1,2012-10-05T21:00:00Z,27.8217,-97.2040,27.6,11111222 
TCOON,ioos:station:TCOON:006:1,2012-10-05T22:00:00Z,27.8217,-97.2040,27.3,11111222 
TCOON,ioos:station:TCOON:006:1,2012-10-05T23:00:00Z,27.8217,-97.2040,26.8,11111222 
TCOON,ioos:station:TCOON:006:1,2012-10-06T00:00:00Z,27.8217,-97.2040,26.6,11111222 
TCOON,ioos:station:TCOON:006:1,2012-10-06T01:00:00Z,27.8217,-97.2040,26.5,11111222 
TCOON,ioos:station:TCOON:006:1,2012-10-06T02:00:00Z,27.8217,-97.2040,26.5,11111222 
TCOON,ioos:station:TCOON:006:1,2012-10-06T03:00:00Z,27.8217,-97.2040,26.3,11111222 
TCOON,ioos:station:TCOON:006:1,2012-10-06T04:00:00Z,27.8217,-97.2040,26.3,11111222 
TCOON,ioos:station:TCOON:006:1,2012-10-06T05:00:00Z,27.8217,-97.2040,26.2,11111222 
TCOON,ioos:station:TCOON:006:1,2012-10-06T06:00:00Z,27.8217,-97.2040,26.3,11111222 
TCOON,ioos:station:TCOON:006:1,2012-10-06T07:00:00Z,27.8217,-97.2040,26.1,11111222 
TCOON,ioos:station:TCOON:006:1,2012-10-06T08:00:00Z,27.8217,-97.2040,26.1,11111222 
TCOON,ioos:station:TCOON:006:1,2012-10-06T09:00:00Z,27.8217,-97.2040,26.1,11111222 
TCOON,ioos:station:TCOON:006:1,2012-10-06T10:00:00Z,27.8217,-97.2040,26.2,11111222 
TCOON,ioos:station:TCOON:006:1,2012-10-06T11:00:00Z,27.8217,-97.2040,26.4,11111222 
TCOON,ioos:station:TCOON:006:1,2012-10-06T12:00:00Z,27.8217,-97.2040,26.4,11111222 
TCOON,ioos:station:TCOON:006:1,2012-10-06T13:00:00Z,27.8217,-97.2040,27.0,11111222 
TCOON,ioos:station:TCOON:006:1,2012-10-06T14:00:00Z,27.8217,-97.2040,27.6,11111222 
TCOON,ioos:station:TCOON:006:1,2012-10-06T15:00:00Z,27.8217,-97.2040,26.6,11111222 
TCOON,ioos:station:TCOON:006:1,2012-10-06T16:00:00Z,27.8217,-97.2040,27.7,11111222 
TCOON,ioos:station:TCOON:006:1,2012-10-06T17:00:00Z,27.8217,-97.2040,27.7,11111222 
TCOON,ioos:station:TCOON:006:1,2012-10-06T18:00:00Z,27.8217,-97.2040,27.9,11111222 
TCOON,ioos:station:TCOON:006:1,2012-10-06T19:00:00Z,27.8217,-97.2040,28.5,11111222 
TCOON,ioos:station:TCOON:006:1,2012-10-06T20:00:00Z,27.8217,-97.2040,28.2,11111222 
TCOON,ioos:station:TCOON:006:1,2012-10-06T21:00:00Z,27.8217,-97.2040,27.7,11111222 
TCOON,ioos:station:TCOON:006:1,2012-10-06T22:00:00Z,27.8217,-97.2040,28.0,11111222 
TCOON,ioos:station:TCOON:006:1,2012-10-06T23:00:00Z,27.8217,-97.2040,27.5,11111222 
TCOON,ioos:station:TCOON:006:1,2012-10-07T00:00:00Z,27.8217,-97.2040,26.9,11111222 
TCOON,ioos:station:TCOON:006:1,2012-10-07T01:00:00Z,27.8217,-97.2040,27.0,11111222 
TCOON,ioos:station:TCOON:006:1,2012-10-07T02:00:00Z,27.8217,-97.2040,26.9,11111222 
TCOON,ioos:station:TCOON:006:1,2012-10-07T03:00:00Z,27.8217,-97.2040,26.5,11111222 
TCOON,ioos:station:TCOON:006:1,2012-10-07T04:00:00Z,27.8217,-97.2040,26.4,11111222 
TCOON,ioos:station:TCOON:006:1,2012-10-07T05:00:00Z,27.8217,-97.2040,22.8,11111222 
TCOON,ioos:station:TCOON:006:1,2012-10-07T06:00:00Z,27.8217,-97.2040,21.3,11111222 
TCOON,ioos:station:TCOON:006:1,2012-10-07T07:00:00Z,27.8217,-97.2040,20.2,11111222 
TCOON,ioos:station:TCOON:006:1,2012-10-07T08:00:00Z,27.8217,-97.2040,20.2,11111222 
TCOON,ioos:station:TCOON:006:1,2012-10-07T09:00:00Z,27.8217,-97.2040,19.2,11111222 
TCOON,ioos:station:TCOON:006:1,2012-10-07T10:00:00Z,27.8217,-97.2040,18.5,11111222 
TCOON,ioos:station:TCOON:006:1,2012-10-07T11:00:00Z,27.8217,-97.2040,17.6,11111222 
TCOON,ioos:station:TCOON:006:1,2012-10-07T12:00:00Z,27.8217,-97.2040,16.8,11111222 
TCOON,ioos:station:TCOON:006:1,2012-10-07T13:00:00Z,27.8217,-97.2040,15.9,11111222 
TCOON,ioos:station:TCOON:006:1,2012-10-07T14:00:00Z,27.8217,-97.2040,16.2,11111222 
TCOON,ioos:station:TCOON:006:1,2012-10-07T15:00:00Z,27.8217,-97.2040,16.7,11111222 
TCOON,ioos:station:TCOON:006:1,2012-10-07T16:00:00Z,27.8217,-97.2040,17.4,11111222 
TCOON,ioos:station:TCOON:006:1,2012-10-07T17:00:00Z,27.8217,-97.2040,18.4,11111222 
TCOON,ioos:station:TCOON:006:1,2012-10-07T18:00:00Z,27.8217,-97.2040,19.7,11111222 
TCOON,ioos:station:TCOON:006:1,2012-10-07T19:00:00Z,27.8217,-97.2040,19.9,11111222 
TCOON,ioos:station:TCOON:006:1,2012-10-07T20:00:00Z,27.8217,-97.2040,20.4,11111222 
TCOON,ioos:station:TCOON:006:1,2012-10-07T21:00:00Z,27.8217,-97.2040,20.3,11111222 
TCOON,ioos:station:TCOON:006:1,2012-10-07T22:00:00Z,27.8217,-97.2040,20.0,11111222 
TCOON,ioos:station:TCOON:006:1,2012-10-07T23:00:00Z,27.8217,-97.2040,19.3,11111222 
TCOON,ioos:station:TCOON:006:1,2012-10-08T00:00:00Z,27.8217,-97.2040,18.6,11111222 
TCOON,ioos:station:TCOON:006:1,2012-10-08T01:00:00Z,27.8217,-97.2040,18.2,11111222 
TCOON,ioos:station:TCOON:006:1,2012-10-08T02:00:00Z,27.8217,-97.2040,18.2,11111222 
TCOON,ioos:station:TCOON:006:1,2012-10-08T03:00:00Z,27.8217,-97.2040,18.0,11111222 
TCOON,ioos:station:TCOON:006:1,2012-10-08T04:00:00Z,27.8217,-97.2040,17.6,11111222 
TCOON,ioos:station:TCOON:006:1,2012-10-08T05:00:00Z,27.8217,-97.2040,16.7,11111222 
TCOON,ioos:station:TCOON:006:1,2012-10-08T06:00:00Z,27.8217,-97.2040,16.6,11111222 
TCOON,ioos:station:TCOON:006:1,2012-10-08T07:00:00Z,27.8217,-97.2040,16.5,11111222 
TCOON,ioos:station:TCOON:006:1,2012-10-08T08:00:00Z,27.8217,-97.2040,16.1,11111222 
TCOON,ioos:station:TCOON:006:1,2012-10-08T09:00:00Z,27.8217,-97.2040,15.6,11111222 
TCOON,ioos:station:TCOON:006:1,2012-10-08T10:00:00Z,27.8217,-97.2040,15.7,11111222 
TCOON,ioos:station:TCOON:006:1,2012-10-08T11:00:00Z,27.8217,-97.2040,14.7,11111222 
TCOON,ioos:station:TCOON:006:1,2012-10-08T12:00:00Z,27.8217,-97.2040,14.6,11111222 
TCOON,ioos:station:TCOON:006:1,2012-10-08T13:00:00Z,27.8217,-97.2040,14.8,11111222 
TCOON,ioos:station:TCOON:006:1,2012-10-08T14:00:00Z,27.8217,-97.2040,15.7,11111222 
TCOON,ioos:station:TCOON:006:1,2012-10-08T15:00:00Z,27.8217,-97.2040,16.3,11111222 
TCOON,ioos:station:TCOON:006:1,2012-10-08T16:00:00Z,27.8217,-97.2040,17.7,11111222 
TCOON,ioos:station:TCOON:006:1,2012-10-08T17:00:00Z,27.8217,-97.2040,18.4,11111222 
TCOON,ioos:station:TCOON:006:1,2012-10-08T18:00:00Z,27.8217,-97.2040,18.8,11111222 
TCOON,ioos:station:TCOON:006:1,2012-10-08T19:00:00Z,27.8217,-97.2040,19.4,11111222 
TCOON,ioos:station:TCOON:006:1,2012-10-08T20:00:00Z,27.8217,-97.2040,19.6,11111222 
TCOON,ioos:station:TCOON:006:1,2012-10-08T21:00:00Z,27.8217,-97.2040,20.7,11111222 
TCOON,ioos:station:TCOON:006:1,2012-10-08T22:00:00Z,27.8217,-97.2040,20.5,11111222 
TCOON,ioos:station:TCOON:006:1,2012-10-08T23:00:00Z,27.8217,-97.2040,20.0,11111222 
TCOON,ioos:station:TCOON:006:1,2012-10-09T00:00:00Z,27.8217,-97.2040,19.9,11111222 
TCOON,ioos:station:TCOON:006:1,2012-10-09T01:00:00Z,27.8217,-97.2040,20.4,11111222 
TCOON,ioos:station:TCOON:006:1,2012-10-09T02:00:00Z,27.8217,-97.2040,20.1,11111222 
TCOON,ioos:station:TCOON:006:1,2012-10-09T03:00:00Z,27.8217,-97.2040,19.5,11111222 
TCOON,ioos:station:TCOON:006:1,2012-10-09T04:00:00Z,27.8217,-97.2040,18.2,11111222 
TCOON,ioos:station:TCOON:006:1,2012-10-09T05:00:00Z,27.8217,-97.2040,18.2,11111222 
TCOON,ioos:station:TCOON:006:1,2012-10-09T06:00:00Z,27.8217,-97.2040,18.6,11111222 
TCOON,ioos:station:TCOON:006:1,2012-10-09T07:00:00Z,27.8217,-97.2040,20.2,11111222 
TCOON,ioos:station:TCOON:006:1,2012-10-09T08:00:00Z,27.8217,-97.2040,20.6,11111222 
TCOON,ioos:station:TCOON:006:1,2012-10-09T09:00:00Z,27.8217,-97.2040,23.7,11111222 
TCOON,ioos:station:TCOON:006:1,2012-10-09T10:00:00Z,27.8217,-97.2040,24.1,11111222 
TCOON,ioos:station:TCOON:006:1,2012-10-09T11:00:00Z,27.8217,-97.2040,24.2,11111222 
TCOON,ioos:station:TCOON:006:1,2012-10-09T12:00:00Z,27.8217,-97.2040,24.4,11111222 
TCOON,ioos:station:TCOON:006:1,2012-10-09T13:00:00Z,27.8217,-97.2040,25.0,11111222 
TCOON,ioos:station:TCOON:006:1,2012-10-09T14:00:00Z,27.8217,-97.2040,25.5,11111222 
TCOON,ioos:station:TCOON:006:1,2012-10-09T15:00:00Z,27.8217,-97.2040,25.5,11111222 
TCOON,ioos:station:TCOON:006:1,2012-10-09T16:00:00Z,27.8217,-97.2040,25.9,11111222 
TCOON,ioos:station:TCOON:006:1,2012-10-09T17:00:00Z,27.8217,-97.2040,25.9,11111222 
TCOON,ioos:station:TCOON:006:1,2012-10-09T18:00:00Z,27.8217,-97.2040,25.7,11111222 
TCOON,ioos:station:TCOON:006:1,2012-10-09T19:00:00Z,27.8217,-97.2040,26.1,11111222 
TCOON,ioos:station:TCOON:006:1,2012-10-09T20:00:00Z,27.8217,-97.2040,26.2,11111222 
TCOON,ioos:station:TCOON:006:1,2012-10-09T21:00:00Z,27.8217,-97.2040,26.2,11111222 
TCOON,ioos:station:TCOON:006:1,2012-10-09T22:00:00Z,27.8217,-97.2040,26.3,11111222 
TCOON,ioos:station:TCOON:006:1,2012-10-09T23:00:00Z,27.8217,-97.2040,25.7,11111222 
TCOON,ioos:station:TCOON:006:1,2012-10-10T00:00:00Z,27.8217,-97.2040,25.4,11111222 
TCOON,ioos:station:TCOON:006:1,2012-10-10T01:00:00Z,27.8217,-97.2040,25.3,11111222 
TCOON,ioos:station:TCOON:006:1,2012-10-10T02:00:00Z,27.8217,-97.2040,25.5,11111222 
TCOON,ioos:station:TCOON:006:1,2012-10-10T03:00:00Z,27.8217,-97.2040,25.5,11111222 
TCOON,ioos:station:TCOON:006:1,2012-10-10T04:00:00Z,27.8217,-97.2040,25.5,11111222 
TCOON,ioos:station:TCOON:006:1,2012-10-10T05:00:00Z,27.8217,-97.2040,25.5,11111222 
TCOON,ioos:station:TCOON:006:1,2012-10-10T06:00:00Z,27.8217,-97.2040,25.5,11111222 
TCOON,ioos:station:TCOON:006:1,2012-10-10T07:00:00Z,27.8217,-97.2040,25.5,11111222 
TCOON,ioos:station:TCOON:006:1,2012-10-10T08:00:00Z,27.8217,-97.2040,25.5,11111222 
TCOON,ioos:station:TCOON:006:1,2012-10-10T09:00:00Z,27.8217,-97.2040,25.4,11111222 
TCOON,ioos:station:TCOON:006:1,2012-10-10T10:00:00Z,27.8217,-97.2040,25.4,11111222 
TCOON,ioos:station:TCOON:006:1,2012-10-10T11:00:00Z,27.8217,-97.2040,25.4,11111222 
TCOON,ioos:station:TCOON:006:1,2012-10-10T13:00:00Z,27.8217,-97.2040,26.0,11111222 
TCOON,ioos:station:TCOON:006:1,2012-10-10T14:00:00Z,27.8217,-97.2040,26.5,11111222 
TCOON,ioos:station:TCOON:006:1,2012-10-10T15:00:00Z,27.8217,-97.2040,27.7,11111222 
TCOON,ioos:station:TCOON:006:1,2012-10-10T16:00:00Z,27.8217,-97.2040,28.0,11111222 
TCOON,ioos:station:TCOON:006:1,2012-10-10T17:00:00Z,27.8217,-97.2040,26.6,11111222 
TCOON,ioos:station:TCOON:006:1,2012-10-10T18:00:00Z,27.8217,-97.2040,27.4,11111222 
TCOON,ioos:station:TCOON:006:1,2012-10-10T19:00:00Z,27.8217,-97.2040,27.6,11111222 
TCOON,ioos:station:TCOON:006:1,2012-10-10T20:00:00Z,27.8217,-97.2040,29.0,11111222 
TCOON,ioos:station:TCOON:006:1,2012-10-10T21:00:00Z,27.8217,-97.2040,27.9,11111222 
TCOON,ioos:station:TCOON:006:1,2012-10-10T22:00:00Z,27.8217,-97.2040,26.7,11111222 
TCOON,ioos:station:TCOON:006:1,2012-10-10T23:00:00Z,27.8217,-97.2040,26.5,11111222 
TCOON,ioos:station:TCOON:006:1,2012-10-11T00:00:00Z,27.8217,-97.2040,25.9,11111222 
TCOON,ioos:station:TCOON:006:1,2012-10-11T01:00:00Z,27.8217,-97.2040,26.2,11111222 
TCOON,ioos:station:TCOON:006:1,2012-10-11T02:00:00Z,27.8217,-97.2040,26.0,11111222 
TCOON,ioos:station:TCOON:006:1,2012-10-11T03:00:00Z,27.8217,-97.2040,25.8,11111222 
TCOON,ioos:station:TCOON:006:1,2012-10-11T04:00:00Z,27.8217,-97.2040,25.8,11111222 
TCOON,ioos:station:TCOON:006:1,2012-10-11T05:00:00Z,27.8217,-97.2040,25.9,11111222 
TCOON,ioos:station:TCOON:006:1,2012-10-11T06:00:00Z,27.8217,-97.2040,26.0,11111222 
TCOON,ioos:station:TCOON:006:1,2012-10-11T07:00:00Z,27.8217,-97.2040,26.2,11111222 
TCOON,ioos:station:TCOON:006:1,2012-10-11T08:00:00Z,27.8217,-97.2040,26.2,11111222 
TCOON,ioos:station:TCOON:006:1,2012-10-11T09:00:00Z,27.8217,-97.2040,26.2,11111222 
TCOON,ioos:station:TCOON:006:1,2012-10-11T10:00:00Z,27.8217,-97.2040,26.0,11111222 
TCOON,ioos:station:TCOON:006:1,2012-10-11T11:00:00Z,27.8217,-97.2040,24.7,11111222 
TCOON,ioos:station:TCOON:006:1,2012-10-11T12:00:00Z,27.8217,-97.2040,25.9,11111222 
TCOON,ioos:station:TCOON:006:1,2012-10-11T13:00:00Z,27.8217,-97.2040,25.9,11111222 
TCOON,ioos:station:TCOON:006:1,2012-10-11T14:00:00Z,27.8217,-97.2040,26.4,11111222 
TCOON,ioos:station:TCOON:006:1,2012-10-11T15:00:00Z,27.8217,-97.2040,27.0,11111222 
TCOON,ioos:station:TCOON:006:1,2012-10-11T16:00:00Z,27.8217,-97.2040,27.3,11111222 
TCOON,ioos:station:TCOON:006:1,2012-10-11T17:00:00Z,27.8217,-97.2040,27.7,11111222 
TCOON,ioos:station:TCOON:006:1,2012-10-11T18:00:00Z,27.8217,-97.2040,27.2,11111222 
TCOON,ioos:station:TCOON:006:1,2012-10-11T19:00:00Z,27.8217,-97.2040,28.0,11111222 
TCOON,ioos:station:TCOON:006:1,2012-10-11T20:00:00Z,27.8217,-97.2040,27.5,11111222 
TCOON,ioos:station:TCOON:006:1,2012-10-11T21:00:00Z,27.8217,-97.2040,27.4,11111222 
TCOON,ioos:station:TCOON:006:1,2012-10-11T22:00:00Z,27.8217,-97.2040,27.3,11111222 
TCOON,ioos:station:TCOON:006:1,2012-10-11T23:00:00Z,27.8217,-97.2040,26.9,11111222 
TCOON,ioos:station:TCOON:006:1,2012-10-12T00:00:00Z,27.8217,-97.2040,26.6,11111222 
TCOON,ioos:station:TCOON:006:1,2012-10-12T01:00:00Z,27.8217,-97.2040,26.5,11111222 
TCOON,ioos:station:TCOON:006:1,2012-10-12T02:00:00Z,27.8217,-97.2040,26.5,11111222 
TCOON,ioos:station:TCOON:006:1,2012-10-12T03:00:00Z,27.8217,-97.2040,26.4,11111222 
TCOON,ioos:station:TCOON:006:1,2012-10-12T04:00:00Z,27.8217,-97.2040,26.4,11111222 
TCOON,ioos:station:TCOON:006:1,2012-10-12T05:00:00Z,27.8217,-97.2040,26.4,11111222 
TCOON,ioos:station:TCOON:006:1,2012-10-12T06:00:00Z,27.8217,-97.2040,26.3,11111222 
TCOON,ioos:station:TCOON:006:1,2012-10-12T07:00:00Z,27.8217,-97.2040,26.2,11111222 
TCOON,ioos:station:TCOON:006:1,2012-10-12T08:00:00Z,27.8217,-97.2040,26.1,11111222 
TCOON,ioos:station:TCOON:006:1,2012-10-12T09:00:00Z,27.8217,-97.2040,26.0,11111222 
TCOON,ioos:station:TCOON:006:1,2012-10-12T10:00:00Z,27.8217,-97.2040,25.9,11111222 
TCOON,ioos:station:TCOON:006:1,2012-10-12T11:00:00Z,27.8217,-97.2040,25.9,11111222 
TCOON,ioos:station:TCOON:006:1,2012-10-12T12:00:00Z,27.8217,-97.2040,26.0,11111222 
TCOON,ioos:station:TCOON:006:1,2012-10-12T13:00:00Z,27.8217,-97.2040,26.8,11111222 
TCOON,ioos:station:TCOON:006:1,2012-10-12T14:00:00Z,27.8217,-97.2040,27.5,11111222 
TCOON,ioos:station:TCOON:006:1,2012-10-12T15:00:00Z,27.8217,-97.2040,27.9,11111222 
TCOON,ioos:station:TCOON:006:1,2012-10-12T16:00:00Z,27.8217,-97.2040,27.9,11111222 
TCOON,ioos:station:TCOON:006:1,2012-10-12T17:00:00Z,27.8217,-97.2040,28.2,11111222 
TCOON,ioos:station:TCOON:006:1,2012-10-12T18:00:00Z,27.8217,-97.2040,28.2,11111222 
TCOON,ioos:station:TCOON:006:1,2012-10-12T19:00:00Z,27.8217,-97.2040,28.2,11111222 
TCOON,ioos:station:TCOON:006:1,2012-10-12T20:00:00Z,27.8217,-97.2040,28.3,11111222 